Find Starlink 34886

NORAD ID: 65683 Int'l Des: 2025-212 Owner: SPXS Country: US Constellation: starlink operational
LEOCIRCULAR

当前视图

正在加载3D地球...

About Starlink 34886

Starlink 34886 (NORAD 65683) is a starlink constellation satellite (v2 mini) launched Sep 21, 2025 by SPXS of US. It operates in LEO, CIRCULAR orbit with a mass of 575.00 kg.

即将过境

Passes for default location (London). Set your location on the main map for personalized predictions.

高度历史

Loading altitude history...

两行轨道根数

1 65683U 25212H 26263.26183863 .00022976 00000-0 74894-3 0 9997
2 65683 53.1572 160.4733 0000877 89.8660 270.2442 15.31740340 57007
Epoch: Sep 20, 2026 • Age: 26 hours

当前状态

高度 470.5 km
远地点 / 近地点 N/A
速度 7.63 km/s
星下点 9.80°N, 153.16°W
发射日期 Sep 21, 2025
运行时间 0.9 years
类型 internet

技术详情

分类 Payload
质量 575.00 kg
干质量 530.00 kg
长度 0.30 m
跨度 29.00 m
形状 ? Box + pan
制造商 SPXS
平台类型 Starlink V2MO
阶段状态 In Orbit
所有者/国家 SPXS/US

Most Searched